User: anonymous   Login
Location: Henau
(47.4548°N, 9.1164°E)
Time: 23:45:30
(UTC+00:00)
Language:

Cosmos 2237 - Orbit

View from above orbital plane
View from above orbital plane
View from above satellite
View from above satellite

Ground track
Ground track

The orbit data is extracted from the following two-line orbital elements,

1 22565U 93016A   21127.90175599 -.00000054  00000-0 -30638-5 0  9993
2 22565  70.8479 292.9300 0006759 179.6182 180.4944 14.12514478449827
Epoch (UTC): 07 May 2021 21:38:31
Eccentricity: 0.0006759
inclination: 70.8479°
perigee height: 846 km
apogee height: 855 km
right ascension of ascending node: 292.9300°
argument of perigee: 179.6182°
revolutions per day: 14.12514478
mean anomaly at epoch: 180.4944°
orbit number at epoch: 44982

The dashed part of the orbit path shows where the satellite is in the earth's shadow,  

DLR